Location: White Ridge parking lot
(35.4984°N, 106.8413°W)
Time: 11:34:21
(UTC-06:00)

XW-2B - Visible Passes

Search period start: 21 October 2019 00:00
Search period end: 31 October 2019 00:00
Orbit: 507 x 529 km, 97.5° (Epoch: 21 October)

Date Brightness Start Highest point End Pass type
(mag) Time Alt. Az. Time Alt. Az. Time Alt. Az.
21 Oct ? 06:21:02 10° NE 06:23:53 21° E 06:26:44 10° SE visible
22 Oct ? 06:07:46 10° ENE 06:09:44 14° E 06:11:42 10° SE visible
24 Oct ? 19:25:20 10° SW 19:27:20 14° W 19:29:19 10° WNW visible
25 Oct ? 19:10:18 10° SW 19:13:11 21° W 19:16:03 10° NW visible
26 Oct ? 06:44:09 10° NNE 06:47:43 43° E 06:51:16 10° S visible
26 Oct ? 18:55:42 10° SSW 18:59:03 31° W 19:02:25 10° NNW visible
27 Oct ? 06:30:22 10° NE 06:33:36 28° E 06:36:49 10° SSE visible
27 Oct ? 18:41:19 10° S 18:44:57 49° W 18:48:36 10° NNW visible
28 Oct ? 06:16:49 10° NE 06:19:28 18° E 06:22:07 10° SE visible
29 Oct ? 06:03:45 10° ENE 06:05:18 12° E 06:06:51 10° ESE visible
30 Oct ? 19:36:41 10° W 19:37:04 10° W 19:37:25 10° W visible
